カタログに戻る

DELTA 1 DEB

運用中PO
NORAD 1313·DEBRIS·🇺🇸 United States

打ち上げ Jan 22, 1965 から Cape Canaveral Space Force Station

Loading…

次のパス (今後24時間)

TLE

最新Source: Space-Track

元期: Sep 14, 2026, 11:49 UTC

1 01313U 65004D   26257.49285928  .00000038  00000-0  66903-4 0  9991
2 01313  96.4230 156.1496 1174138 136.7057 233.2579 12.00868002697167

AllMySatでDELTA 1 DEBをリアルタイム追跡

Download on the App Store